Regional Weather Roundup
Issued by NWS

Home | Current Version | Previous Version | Graphics & Text | Print | Product List | Glossary On
Versions: 1 2 3 4 5 6 7 8 9 10 11 12 13 14 15 16 17 18 19 20 21 22 23 24 25 26 27
000
ASUS45 KPSR 260210
RWRAZ

ARIZONA HOURLY REGIONAL WEATHER ROUNDUP
NATIONAL WEATHER SERVICE PHOENIX AZ
700 PM MST THU AUG 25 2016

NOTE: FAIR INDICATES FEW OR NO CLOUDS BELOW 12,000 FEET WITH NO
SIGNIFICANT WEATHER AND/OR OBSTRUCTIONS TO VISIBILITY.

AZZ001>003-036-260300-
NORTHWEST ARIZONA

CITY           SKY/WX    TMP DP  RH WIND       PRES   REMARKS
BULLHEAD CITY  PTCLDY   102  46  15 S14G23    29.70S
KINGMAN        PTCLDY    86  47  25 S14       29.95S
$$

AZZ004>008-015-016-018-260300-
NORTH CENTRAL ARIZONA

CITY           SKY/WX    TMP DP  RH WIND       PRES   REMARKS
GRAND CANYON   MOCLDY    57  52  83 NE8       30.24R
PRESCOTT       MOCLDY    67  54  63 S5        30.11F
FLAGSTAFF      CLOUDY    54  49  83 SE5       30.28F
PAYSON         MOCLDY    73  52  46 N5        30.16R
PAGE           LGT RAIN  63  57  81 SE12      30.15R
$$

AZZ009>014-017-260300-
NORTHEAST ARIZONA

CITY           SKY/WX    TMP DP  RH WIND       PRES   REMARKS
WINSLOW        CLOUDY    66  55  67 NW8       30.14F
SAINT JOHNS    MOCLDY    68  49  50 S3        30.16R
WINDOW ROCK    CLOUDY    60  50  69 NE3       30.27R
SHOW LOW       CLOUDY    59  50  72 CALM      30.23R
$$

AZZ023-260300-
GREATER PHOENIX AREA

CITY           SKY/WX    TMP DP  RH WIND       PRES   REMARKS
PHOENIX        PTCLDY    99  51  19 W8        29.78R
BUCKEYE        CLEAR     95  50  21 SW7       29.79S
GLENDALE       PTCLDY   100  48  17 SW7       29.79S
LUKE AFB       CLEAR     99  51  19 SW6       29.77S
DEER VALLEY    CLEAR     96  49  20 W8        29.81R
SCOTTSDALE     CLEAR     97  49  19 W6        29.83S
MESA-FALCON    PTCLDY   N/A N/A N/A W9        29.79S
MESA-GATEWAY   PTCLDY    97  52  21 W9        29.83R
CHANDLER       CLEAR     97  50  20 SW9       29.80S
$$

AZZ027-028-260300-
SOUTHWEST MARICOPA COUNTY AND PINAL COUNTY

CITY           SKY/WX    TMP DP  RH WIND       PRES   REMARKS
CASA GRANDE    PTCLDY    97  50  20 W9        29.84S
GILA BEND      PTCLDY    99  53  21 W14       29.76R
$$

AZZ503-504-507>509-260300-
SOUTHEAST ARIZONA

CITY           SKY/WX    TMP DP  RH WIND       PRES   REMARKS
TUCSON         MOCLDY    92  49  22 W6        29.94R
DAVIS-MONTHAN  PTCLDY    90  49  24 W8        29.92R
RYAN FIELD     CLEAR     91  54  27 NW3       29.92R
NOGALES        MOCLDY    73  58  59 SW5       30.06R
SIERRA VISTA   MOCLDY    78  48  34 SW12      30.10R
DOUGLAS        MOCLDY    76  50  40 NW9       30.06S
SAFFORD        MOCLDY    90  44  20 S5        29.93R
$$

AZZ020-021-025-026-031-260300-
SOUTHWEST ARIZONA

CITY           SKY/WX    TMP DP  RH WIND       PRES   REMARKS
YUMA           PTCLDY    97  54  23 S15       29.72R
$$

CAZ031-033-041-043-047-048-061-260300-
SOUTHERN CALIFORNIA

CITY           SKY/WX    TMP DP  RH WIND       PRES   REMARKS
DOWNTOWN L.A.  CLEAR     70  61  73 VRB3      29.88R
L.A. AIRPORT   PTCLDY    67  60  78 W10       29.89S
SAN DIEGO      PTCLDY    68  59  73 NW8       29.92S
BURBANK        CLEAR     73  60  63 S10       29.88R
ONTARIO        CLEAR     75  58  55 W12       29.88R
RIVERSIDE      CLEAR     76  58  53 W9        29.88R
PALM SPRINGS   CLEAR     98  48  18 NW28      29.74R
EL CENTRO NAS  PTCLDY    99  55  23 SE15      29.70R
IMPERIAL       CLEAR    100  55  22 SE16G25   29.68R
BLYTHE         CLEAR    102  50  17 S15       29.72R
NEEDLES        MOCLDY   103  48  15 SW16G23   29.73R
$$

NVZ020-UTZ003-260300-
SOUTHERN NEVADA-UTAH

CITY           SKY/WX    TMP DP  RH WIND       PRES   REMARKS
LAS VEGAS      PTCLDY    97  29   9 W10       29.77S
SALT LAKE CITY PTCLDY    80  28  15 N7        29.98S
$$

NMZ009-TXZ055-260300-
NEW MEXICO-WEST TEXAS

CITY           SKY/WX    TMP DP  RH WIND       PRES   REMARKS
ALBUQUERQUE    PTCLDY    77  42  28 SE7       30.12S
EL PASO        MOCLDY    76  55  48 E15G26    30.07R
$$


........................KEY........................
SKY/WX - SKY CONDITION/WEATHER
TMP    - TEMPERATURE IN FAHRENHEIT
DP     - DEW POINT IN FAHRENHEIT
RH     - RELATIVE HUMIDITY IN PERCENT
WIND   - DIRECTION AND SPEED IN MILES PER HOUR (MPH)
VRB    - VARIABLE WIND DIRECTION
PRES   - MEAN SEA LEVEL PRESSURE IN INCHES OF MERCURY
         F - FALLING PRESSURE   R - RISING PRESSURE
         S - STEADY PRESSURE
VSB    - VISIBILITY IN MILES
HX     - HEAT INDEX IN FAHRENHEIT
WCI    - WIND CHILL INDEX IN FAHRENHEIT
TC     - TEMPERATURE IN CELSIUS WHICH IS ALSO KNOWN AS
         TEMPERATURE IN CENTIGRADE
AFB    - AIR FORCE BASE
         LUKE AFB IS LUKE AIR FORCE BASE
         DAVIS-MONTHAN IS DAVIS-MONTHAN AIR FORCE BASE
NAS    - NAVAL AIR STATION
         EL CENTRO NAS IS EL CENTRO NAVAL AIR STATION
N/A    - NOT AVAILABLE





USA.gov is the U.S. government's official web portal to all federal, state and local government web resources and services.